This is the latest recevied weather packets stored in our database for station/object XE2RCS-21. If no packets are shown the sender has not sent any weather packets the latest 10 day(s).
| Time | Temp. | Humidity | Pressure | Rain* | Wind** | Luminosity | Snow |
|---|---|---|---|---|---|---|---|
| 1777557626 | 22.22° C | 100% | 1007 hPa | - | - | - | - |
| 1777555826 | 23.33° C | 100% | 1008.4 hPa | - | - | - | - |
| 1777554026 | 22.22° C | 100% | 1006.1 hPa | - | - | - | - |
| 1777552226 | 21.11° C | 100% | 1004.3 hPa | - | - | - | - |
| 1777550425 | 21.11° C | 100% | 1001.2 hPa | - | - | - | - |
| 1777548625 | 21.67° C | 100% | 1001.4 hPa | - | - | - | - |
| 1777546825 | 21.67° C | 100% | 1001.2 hPa | - | - | - | - |
| 1777545024 | 21.11° C | 100% | 998.9 hPa | - | - | - | - |
| 1777543224 | 21.67° C | 100% | 996.2 hPa | - | - | - | - |
| 1777541425 | 21.11° C | 100% | 999.6 hPa | - | - | - | - |
| 1777539625 | 22.22° C | 100% | 1003.3 hPa | - | - | - | - |
| 1777537825 | 22.22° C | 100% | 1002.2 hPa | - | - | - | - |
| 1777536025 | 22.78° C | 100% | 1006.7 hPa | - | - | - | - |
| 1777534224 | 23.33° C | 100% | 1006.2 hPa | - | - | - | - |
| 1777532424 | 23.89° C | 100% | 1008.9 hPa | - | - | - | - |
| 1777530624 | 24.44° C | 100% | 1014.1 hPa | - | - | - | - |
| 1777528824 | 24.44° C | 100% | 1013.3 hPa | - | - | - | - |
| 1777527024 | 24.44° C | 100% | 1015 hPa | - | - | - | - |
| 1777525224 | 25.56° C | 100% | 1017.2 hPa | - | - | - | - |
| 1777523423 | 25.56° C | 100% | 1017.5 hPa | - | - | - | - |
| 1777521623 | 26.67° C | 100% | 1018.1 hPa | - | - | - | - |
| 1777519824 | 26.67° C | 100% | 1017.3 hPa | - | - | - | - |
| 1777518024 | 26.11° C | 100% | 1017.1 hPa | - | - | - | - |
| 1777516223 | 27.78° C | 100% | 1018 hPa | - | - | - | - |
| 1777514423 | 27.78° C | 100% | 1017.7 hPa | - | - | - | - |
* Rain since midnight (hover to see other rain measurements)
** Current wind speed in m/s (hover to see current wind gust speed)